Location: La Chapelle
(48.3135°N, 1.3085°W)
Time: 22:18:09
(UTC+00:00)

Cosmos 2360 Rocket - Pass Details

Date: 03 March 2021
Orbit: 833 x 846 km, 71.0° (Epoch: 20 April)

Event Time Altitude Azimuth Distance (km) Brightness Sun altitude
Rises 18:36:54 0° 180° (S) 3,374 5.3 -8.2°
Reaches altitude 10° 18:39:29 10° 172° (S) 2,447 4.5 -8.6°
Maximum altitude 18:44:34 37° 107° (ESE) 1,291 2.7 -9.4°
Drops below altitude 10° 18:49:43 10° 42° (NE) 2,471 4.3 -10.3°
Sets 18:52:19 0° 34° (NE) 3,412 5.0 -10.7°
